Weather reports worldwide

Advertisment
West Plains Regional, United States of America (72348): temperature & dewpoint: 19.04.2019 07:00:00 - 25.04.2019 07:00:00 (CDT)West Plains Regional, United States of America (72348): wind speed & gusts: 19.04.2019 07:00:00 - 25.04.2019 07:00:00 (CDT)West Plains Regional, United States of America (72348): wind direction: 19.04.2019 07:00:00 - 25.04.2019 07:00:00 (CDT)West Plains Regional, United States of America (72348): reduced air pressure: 19.04.2019 07:00:00 - 25.04.2019 07:00:00 (CDT)West Plains Regional, United States of America (72348): visibility: 19.04.2019 07:00:00 - 25.04.2019 07:00:00 (CDT)West Plains Regional, United States of America (72348): precipitation: 19.04.2019 07:00:00 - 25.04.2019 07:00:00 (CDT)
Date & Time tt [°C] td [°C] ff [km/h] ff [kn] fx [km/h] fx [kn] dd ppp [hPa] vv [km] rr [mm]
25.04.2019 07:00:00 16,1 15,6 5 3 - - NE 1006,1 11 0,8
25.04.2019 06:00:00 16,1 15,6 5 3 - - ESE 1006,8 11 0,3
25.04.2019 05:00:00 16,7 15,6 0 0 - - N 1007,1 8 0,5
25.04.2019 04:00:00 16,7 15,6 0 0 - - N 1007,6 10 0,5
25.04.2019 03:00:00 16,7 15,6 0 0 - - N 1008,1 10 0,0
25.04.2019 02:00:00 16,7 15,6 8 4 - - S 1008,3 15 -
25.04.2019 01:00:00 16,7 16,1 8 4 - - S 1009,2 11 -
25.04.2019 00:00:00 17,2 16,1 5 3 - - SSE 1010,0 13 -
24.04.2019 23:00:00 17,2 15,6 8 4 - - SSE 1010,3 15 -
24.04.2019 22:00:00 16,7 15,6 8 4 - - SSW 1010,4 13 -
24.04.2019 21:00:00 16,7 15,6 5 3 - - SSE 1009,9 16 0,0
24.04.2019 20:00:00 17,2 16,1 5 3 - - SSW 1009,8 16 0,3
24.04.2019 19:00:00 17,8 16,1 8 4 - - SW 1010,3 16 0,0
24.04.2019 18:00:00 18,3 16,7 5 3 - - S 1010,3 13 0,0
24.04.2019 17:00:00 18,3 16,7 8 4 - - SSE 1010,2 16 0,8
24.04.2019 16:00:00 18,3 16,1 8 4 - - W 1010,7 8 0,0
24.04.2019 15:00:00 18,9 15,6 8 4 - - SW 1011,1 16 0,3
24.04.2019 14:00:00 20,0 15,6 13 7 - - SW 1011,2 16 -
24.04.2019 13:00:00 20,0 17,2 9 5 - - WSW 1011,9 16 0,3
24.04.2019 12:00:00 19,4 17,2 9 5 - - SW 1012,8 4,8 0,8
24.04.2019 11:00:00 20,6 16,1 9 5 - - WSW 1012,7 16 -
24.04.2019 10:00:00 20,6 15,6 9 5 - - SSW 1012,5 16 -
24.04.2019 09:00:00 20,0 15,6 11 6 - - W 1012,2 16 -
24.04.2019 08:00:00 18,9 15,0 13 7 - - SW 1012,5 16 -
24.04.2019 07:00:00 17,2 13,9 8 4 - - SW 1012,4 16 -
24.04.2019 06:00:00 16,7 13,3 5 3 - - SW 1012,0 16 -
24.04.2019 05:00:00 17,2 13,3 9 5 - - SW 1012,3 16 -
24.04.2019 04:00:00 17,2 13,3 9 5 - - SSW 1012,3 16 -
24.04.2019 03:00:00 16,1 13,9 0 0 - - N 1012,5 16 -
24.04.2019 02:00:00 16,1 13,9 0 0 - - N 1012,6 16 -
24.04.2019 01:00:00 15,6 14,4 0 0 - - N 1013,3 15 -
24.04.2019 00:00:00 17,2 15,0 0 0 - - N 1013,5 16 -
23.04.2019 23:00:00 16,7 14,4 0 0 - - N 1013,8 16 -
23.04.2019 22:00:00 18,9 15,6 8 4 - - N 1013,8 16 -
23.04.2019 21:00:00 19,4 15,6 9 5 - - NNE 1013,7 16 -
23.04.2019 20:00:00 21,7 15,0 9 5 - - NNW 1013,5 16 -
23.04.2019 19:00:00 24,4 12,2 0 0 - - N 1013,0 16 -
23.04.2019 18:00:00 25,0 11,7 9 5 - - S 1013,2 16 -
23.04.2019 17:00:00 26,1 12,8 9 5 - - - 1013,3 16 -
23.04.2019 16:00:00 25,0 12,2 13 7 - - SSW 1014,3 16 -
23.04.2019 15:00:00 25,0 13,9 16 9 - - S 1015,2 16 -
23.04.2019 14:00:00 24,4 14,4 - - - - - 1015,3 16 -
23.04.2019 13:00:00 24,4 15,0 9 5 - - SW 1015,9 16 -
23.04.2019 12:00:00 23,3 15,0 5 3 - - SSW 1016,6 16 -
23.04.2019 11:00:00 22,8 15,6 9 5 - - WSW 1016,7 16 -
23.04.2019 10:00:00 20,6 14,4 8 4 - - WSW 1016,9 16 -
23.04.2019 09:00:00 19,4 13,3 9 5 - - SW 1016,9 16 -
23.04.2019 08:00:00 17,8 12,8 8 4 - - WSW 1016,9 16 -
23.04.2019 07:00:00 16,1 12,2 5 3 - - WSW 1016,5 16 -
23.04.2019 06:00:00 16,1 12,2 5 3 - - WSW 1016,3 16 -
23.04.2019 05:00:00 16,1 12,8 8 4 - - W 1016,1 16 -
23.04.2019 04:00:00 16,1 12,2 9 5 - - SW 1015,9 16 -
23.04.2019 03:00:00 14,4 11,1 5 3 - - SW 1016,2 16 -
23.04.2019 02:00:00 15,0 11,1 0 0 - - N 1016,8 16 -
23.04.2019 01:00:00 15,0 11,1 0 0 - - N 1017,0 16 -
23.04.2019 00:00:00 17,2 11,1 5 3 - - SW 1016,9 16 -
22.04.2019 23:00:00 19,4 10,6 8 4 - - SW 1016,8 16 -
22.04.2019 22:00:00 21,1 11,1 8 4 - - S 1016,4 16 -
22.04.2019 21:00:00 22,2 11,1 9 5 - - S 1016,2 16 -
22.04.2019 20:00:00 23,3 11,7 9 5 - - S 1015,4 16 -
22.04.2019 19:00:00 25,6 11,1 16 9 - - S 1015,1 16 -
22.04.2019 18:00:00 26,7 12,2 13 7 - - S 1014,8 16 -
22.04.2019 17:00:00 27,2 12,2 21 11 - - SSW 1014,7 16 -
22.04.2019 16:00:00 27,2 12,2 21 11 - - SW 1014,9 16 -
22.04.2019 15:00:00 26,7 12,2 18 10 - - SSW 1015,4 16 -
22.04.2019 14:00:00 26,1 11,7 26 14 - - SSW 1015,8 16 -
22.04.2019 13:00:00 25,6 11,1 18 10 - - S 1016,5 16 -
22.04.2019 12:00:00 24,4 10,6 21 11 - - S 1017,3 16 -
22.04.2019 11:00:00 22,8 11,1 18 10 - - SSW 1017,6 16 -
22.04.2019 10:00:00 20,6 11,7 15 8 - - SSW 1018,3 16 -
22.04.2019 09:00:00 17,8 11,1 9 5 - - S 1018,6 16 -
22.04.2019 08:00:00 16,1 11,1 5 3 - - NE 1018,5 16 -
22.04.2019 07:00:00 14,4 10,0 0 0 - - N 1017,1 16 -
22.04.2019 06:00:00 15,0 10,0 13 7 - - SSE 1016,5 16 -
22.04.2019 05:00:00 15,6 10,0 13 7 - - S 1016,6 16 -
22.04.2019 04:00:00 15,6 10,0 5 3 - - - 1016,4 16 -
22.04.2019 03:00:00 16,1 10,0 9 5 - - SSE 1016,3 16 -
22.04.2019 02:00:00 17,2 9,4 13 7 - - SSE 1016,5 16 -
22.04.2019 01:00:00 17,8 9,4 16 9 - - SSE 1016,6 16 -
22.04.2019 00:00:00 17,8 9,4 13 7 - - SE 1016,6 16 -
21.04.2019 23:00:00 18,3 9,4 15 8 - - SSE 1016,6 16 -
21.04.2019 22:00:00 19,4 9,4 15 8 - - SSE 1016,6 16 -
21.04.2019 21:00:00 20,6 9,4 15 8 - - SSE 1016,2 16 -
21.04.2019 20:00:00 22,2 8,9 21 11 - - SSE 1015,4 16 -
21.04.2019 19:00:00 24,4 8,3 16 9 - - SSE 1015,1 16 -
21.04.2019 18:00:00 25,6 8,3 24 13 - - S 1015,0 16 -
21.04.2019 17:00:00 26,1 8,3 21 11 - - S 1014,6 16 -
21.04.2019 16:00:00 26,1 6,7 21 11 - - S 1014,9 16 -
21.04.2019 15:00:00 26,1 6,7 22 12 - - S 1015,6 16 -
21.04.2019 14:00:00 26,1 6,7 18 10 - - SSW 1016,3 16 -
21.04.2019 13:00:00 23,9 6,1 18 10 - - SSE 1016,8 16 -
21.04.2019 12:00:00 22,8 5,0 16 9 - - S 1017,3 16 -
21.04.2019 11:00:00 21,7 5,6 16 9 - - S 1017,2 16 -
21.04.2019 10:00:00 19,4 5,6 9 5 - - SE 1017,1 16 -
21.04.2019 09:00:00 16,1 5,6 8 4 - - SSE 1016,9 16 -
21.04.2019 08:00:00 11,7 4,4 0 0 - - N 1016,5 16 -
21.04.2019 07:00:00 7,2 3,3 0 0 - - N 1015,7 16 -
21.04.2019 06:00:00 6,7 2,2 0 0 - - N 1014,7 16 -
21.04.2019 05:00:00 7,8 2,2 0 0 - - N 1014,5 16 -
21.04.2019 04:00:00 7,8 2,8 5 3 - - WSW 1014,3 16 -
21.04.2019 03:00:00 7,8 3,3 0 0 - - N 1014,0 16 -
21.04.2019 02:00:00 9,4 3,3 0 0 - - N 1014,0 16 -
21.04.2019 01:00:00 8,9 3,3 0 0 - - N 1013,9 16 -
21.04.2019 00:00:00 10,0 3,3 0 0 - - N 1013,7 16 -
20.04.2019 23:00:00 9,4 3,9 0 0 - - N 1013,8 16 -
20.04.2019 22:00:00 12,2 2,8 0 0 - - N 1013,6 16 -
20.04.2019 21:00:00 12,2 3,9 0 0 - - N 1013,2 16 -
20.04.2019 20:00:00 16,1 2,2 0 0 - - N 1012,9 16 -
20.04.2019 19:00:00 20,0 1,1 11 6 - - W 1012,8 16 -
20.04.2019 18:00:00 21,1 0,6 8 4 - - WNW 1012,8 16 -
20.04.2019 17:00:00 21,1 0,6 13 7 - - NNW 1012,8 16 -
20.04.2019 16:00:00 21,1 1,1 21 11 - - N 1013,2 16 -
20.04.2019 15:00:00 21,1 0,0 16 9 - - WNW 1013,4 16 -
20.04.2019 14:00:00 19,4 -0,6 - - - - - 1014,0 16 -
20.04.2019 13:00:00 18,3 -1,1 16 9 - - NNW 1014,5 16 -
20.04.2019 12:00:00 17,2 -0,6 15 8 - - N 1014,9 16 -
20.04.2019 11:00:00 16,1 -1,1 21 11 - - NNW 1015,1 16 -
20.04.2019 10:00:00 15,0 -0,6 21 11 - - NNW 1014,6 16 -
20.04.2019 09:00:00 12,2 0,6 15 8 - - NNW 1014,2 16 -
20.04.2019 08:00:00 8,9 -0,6 15 8 - - NW 1013,6 16 -
20.04.2019 07:00:00 5,6 -1,7 13 7 - - NW 1013,1 16 -
20.04.2019 06:00:00 4,4 -1,7 11 6 - - WNW 1012,6 16 -
20.04.2019 05:00:00 5,6 -1,7 11 6 - - NW 1012,2 16 -
20.04.2019 04:00:00 7,2 -1,7 15 8 - - NW 1012,0 16 -
20.04.2019 03:00:00 7,2 -1,7 13 7 - - NW 1012,1 16 -
20.04.2019 02:00:00 7,2 -1,7 13 7 - - NW 1012,5 16 -
20.04.2019 01:00:00 7,8 -1,7 11 6 - - NW 1012,6 16 -
20.04.2019 00:00:00 8,3 -2,2 13 7 - - NW 1012,3 16 -
19.04.2019 23:00:00 9,4 -2,2 13 7 - - NW 1012,3 16 -
19.04.2019 22:00:00 9,4 -2,2 13 7 - - NW 1012,2 16 -
19.04.2019 21:00:00 10,6 -2,2 13 7 - - NNW 1011,4 16 -
19.04.2019 20:00:00 12,2 -2,2 18 10 50 27 NNW 1010,6 16 -
19.04.2019 19:00:00 13,9 -0,6 26 14 50 27 NNW 1010,0 16 -
19.04.2019 18:00:00 14,4 0,0 34 18 57 31 N 1009,6 16 -
19.04.2019 17:00:00 14,4 1,1 24 13 57 31 N 1009,5 16 -
19.04.2019 16:00:00 13,9 1,1 35 19 63 34 NNW 1009,4 16 -
19.04.2019 15:00:00 13,9 2,8 39 21 70 38 NNW 1009,7 16 -
19.04.2019 14:00:00 11,7 2,8 28 15 55 30 N 1010,3 16 -
19.04.2019 13:00:00 9,4 2,2 34 18 55 30 N 1011,2 16 -
19.04.2019 12:00:00 8,9 1,7 24 13 55 30 N 1011,2 16 -
19.04.2019 11:00:00 8,3 2,2 28 15 55 30 N 1011,2 16 -
19.04.2019 10:00:00 7,8 2,2 28 15 52 28 N 1010,9 16 -
19.04.2019 09:00:00 7,8 2,8 21 11 - - N 1010,5 16 -
19.04.2019 08:00:00 8,3 2,2 24 13 57 31 N 1010,0 16 -
19.04.2019 07:00:00 7,8 1,7 28 15 57 31 N 1009,1 16 -

tt = temperature
td = dewpoint
ff = wind speed
fx = gusts
dd = wind direction
ppp = reduced air pressure
vv = visibility
rr = precipitation

Next stations